This demonstration page uses our WeatherBlox Daily Observations layout. Learn more.

Left ArrowRight Arrow

39.51506, -84.39828

Hourly Observations for May 5, 2015

Temp ( °F °C ) Dew Point ( °F °C ) Humidity (%) Winds ( mph kmh ) Pressure ( in mb ) Visibility ( mi km ) Precip ( " mm )
12:15 am 00:15 Cloudy with Light Rain 64 18 59 15.1 83 83 ENE 6 9 30.18 1022 7 11 0.00 0.00
12:35 am 00:35 Partly Cloudy with Light Rain 64 18 60 15.4 85 85 ENE 8 13 30.18 1022 10 16 0.00 0.00
12:55 am 00:55 Mostly Cloudy 64 18 60 15.6 86 86 Calm 30.21 1023 10 16 0.00 0.00
1:15 am 01:15 Cloudy 64 18 60 15.7 87 87 NNW 6 9 30.21 1023 10 16 0.00 0.00
1:35 am 01:35 Cloudy with Light Rain 64 18 60 15.6 86 86 Calm 30.21 1023 10 16 0.00 0.00
1:55 am 01:55 Mostly Cloudy 64 18 60 15.6 86 86 ENE 3 6 30.21 1023 10 16 0.00 0.00
2:15 am 02:15 Mostly Cloudy 64 17.9 60 15.6 87 87 Calm 30.21 1023 10 16 0.00 0.00
2:35 am 02:35 Cloudy 63 17.3 59 15.1 87 87 Calm 30.24 1024 7 11 0.00 0.00
2:55 am 02:55 Mostly Cloudy 63 17.2 59 15.1 88 88 Calm 30.21 1023 7 11 0.00 0.00
3:15 am 03:15 Partly Cloudy with Mist and Fog 62 16.6 58 14.6 88 88 Calm 30.24 1024 4 6 0.00 0.00
3:35 am 03:35 Mostly Cloudy with Mist and Fog 61 16 57 14 88 88 Calm 30.24 1024 3 4 0.00 0.00
3:55 am 03:55 Cloudy with Mist and Fog 62 16.6 58 14.7 89 89 Calm 30.21 1023 3 5 0.00 0.00
4:15 am 04:15 Mostly Cloudy with Mist and Fog 62 16.6 58 14.7 89 89 NNW 5 7 30.24 1024 3 5 0.00 0.00
4:35 am 04:35 Mostly Cloudy with Mist and Fog 62 16.7 59 14.9 89 89 Calm 30.24 1024 5 8 0.00 0.00
4:55 am 04:55 Mostly Cloudy with Mist and Fog 62 16.6 58 14.7 89 89 Calm 30.24 1024 5 8 0.00 0.00
5:15 am 05:15 Mostly Cloudy with Mist and Fog 62 16.6 58 14.7 89 89 ESE 5 7 30.24 1024 4 6 0.00 0.00
5:35 am 05:35 Mostly Cloudy with Mist and Fog 62 16.7 59 14.9 89 89 Calm 30.24 1024 4 6 0.00 0.00
5:55 am 05:55 Mostly Cloudy with Mist and Fog 62 16.6 58 14.7 89 89 Calm 30.24 1024 4 6 0.00 0.00
6:15 am 06:15 Mostly Cloudy with Mist and Fog 62 16.6 58 14.7 89 89 Calm 30.24 1024 3 4 0.00 0.00
6:35 am 06:35 Mostly Cloudy with Mist and Fog 62 16.6 59 14.8 89 89 Calm 30.24 1024 2 3 0.00 0.00
6:55 am 06:55 Cloudy with Fog 61 16 57 14.1 89 89 Calm 30.27 1025 0 0 0.00 0.00
7:15 am 07:15 Mostly Cloudy with Fog 60 15.4 56 13.6 89 89 Calm 30.27 1025 5 8 0.00 0.00
7:35 am 07:35 Mostly Cloudy with Fog 60 15.3 56 13.5 89 89 Calm 30.27 1025 5 8 0.00 0.00
7:55 am 07:55 Mostly Cloudy with Mist and Fog 61 16 58 14.2 89 89 Calm 30.27 1025 1 2 0.00 0.00
8:15 am 08:15 Sunny with Mist and Fog 62 16.7 59 15 90 90 Calm 30.27 1025 3 4 0.00 0.00
8:35 am 08:35 Sunny with Mist and Fog 64 18 61 16.2 89 89 Calm 30.24 1024 4 6 0.00 0.00
8:55 am 08:55 Sunny 69 20.8 63 17.2 80 80 Calm 30.24 1024 10 16 0.00 0.00
9:15 am 09:15 Sunny 69 20.8 61 16 74 74 Calm 30.24 1024 10 16 0.00 0.00
9:35 am 09:35 Sunny 71 21.9 61 16.1 70 70 SSE 3 6 30.24 1024 10 16 0.00 0.00
9:55 am 09:55 Sunny 73 22.9 61 16.3 66 66 SSE 5 7 30.24 1024 10 16 0.00 0.00
10:15 am 10:15 Sunny 74 23.6 62 16.4 64 64 SSE 3 6 30.24 1024 10 16 0.00 0.00
10:35 am 10:35 Sunny 74 23.6 59 15 59 59 SW 5 7 30.24 1024 10 16 0.00 0.00
10:55 am 10:55 Sunny 74 23.6 58 14.3 56 56 SSW 3 6 30.24 1024 10 16 0.00 0.00
11:15 am 11:15 Sunny 77 25.1 59 15 54 54 SW 6 9 30.24 1024 10 16 0.00 0.00
11:35 am 11:35 Sunny 77 25.1 57 14 50 50 SW 6 9 30.24 1024 10 16 0.00 0.00
11:55 am 11:55 Sunny 77 25.1 56 13.6 49 49 Calm 30.24 1024 10 16 0.00 0.00
12:15 pm 12:15 Sunny 80 26.5 58 14.4 47 47 SSW 5 7 30.24 1024 10 16 0.00 0.00
12:35 pm 12:35 Sunny 80 26.5 56 13.4 44 44 SW 7 11 30.24 1024 10 16 0.00 0.00
12:55 pm 12:55 Sunny 80 26.5 54 12.4 42 42 WNW 3 6 30.24 1024 10 16 0.00 0.00
1:15 pm 13:15 Sunny 81 27 55 12.5 41 41 SW 8 13 30.21 1023 10 16 0.00 0.00
1:35 pm 13:35 Partly Cloudy 81 27.1 52 11 37 37 SSW 6 9 30.21 1023 10 16 0.00 0.00
1:55 pm 13:55 Partly Cloudy 82 27.8 49 9.3 31 31 SW 9 15 30.21 1023 10 16 0.00 0.00
2:15 pm 14:15 Mostly Cloudy 81 27.1 48 8.9 32 32 W 8 13 30.21 1023 10 16 0.00 0.00
2:35 pm 14:35 Mostly Cloudy 81 27.4 49 9.2 32 32 W 9 15 30.21 1023 10 16 0.00 0.00
2:55 pm 14:55 Mostly Cloudy 82 27.7 47 8.4 30 30 W 7 11 30.21 1023 10 16 0.00 0.00
3:15 pm 15:15 Partly Cloudy 83 28.1 48 9.1 30 30 SW 9 15 30.21 1023 10 16 0.00 0.00
3:35 pm 15:35 Partly Cloudy 83 28.6 49 9.2 30 30 WSW 9 15 30.18 1022 10 16 0.00 0.00
3:55 pm 15:55 Partly Cloudy 83 28.1 48 9.1 30 30 SW 7 11 30.18 1022 10 16 0.00 0.00
4:15 pm 16:15 Partly Cloudy 83 28.2 46 7.5 27 27 SW 9 15 30.18 1022 10 16 0.00 0.00
4:35 pm 16:35 Mostly Cloudy 83 28.3 49 9.2 30 30 SW 8 13 30.18 1022 10 16 0.00 0.00
4:55 pm 16:55 Partly Cloudy 82 28 49 9.2 31 31 SW 8 13 30.18 1022 10 16 0.00 0.00
5:15 pm 17:15 Partly Cloudy 82 27.5 49 9.5 32 32 SW 5 7 30.18 1022 10 16 0.00 0.00
5:35 pm 17:35 Partly Cloudy 82 28 50 9.9 32 32 SW 8 13 30.15 1021 10 16 0.00 0.00
5:55 pm 17:55 Partly Cloudy 82 27.7 50 10 33 33 SW 10 17 30.15 1021 10 16 0.00 0.00
6:15 pm 18:15 Partly Cloudy 82 28 49 9.7 32 32 WSW 7 11 30.15 1021 10 16 0.00 0.00
6:35 pm 18:35 Partly Cloudy 82 28 51 10.4 33 33 SSW 9 15 30.15 1021 10 16 0.00 0.00
6:55 pm 18:55 Sunny 81 27.2 51 10.3 35 35 SW 9 15 30.15 1021 10 16 0.00 0.00
7:15 pm 19:15 Sunny 80 26.5 51 10.5 37 37 SW 6 9 30.15 1021 10 16 0.00 0.00
7:35 pm 19:35 Sunny 80 26.5 52 11.3 39 39 SW 8 13 30.15 1021 10 16 0.00 0.00
7:55 pm 19:55 Sunny 77 25.1 55 12.5 46 46 SW 5 7 30.15 1021 10 16 0.00 0.00
8:15 pm 20:15 Sunny 75 24 54 12.1 47 47 SW 3 6 30.15 1021 10 16 0.00 0.00
8:35 pm 20:35 Clear 74 23.6 58 14.5 57 57 W 3 6 30.15 1021 10 16 0.00 0.00
8:55 pm 20:55 Clear 69 20.8 58 14.2 66 66 Calm 30.15 1021 10 16 0.00 0.00
9:15 pm 21:15 Clear 69 20.8 57 13.9 65 65 Calm 30.18 1022 10 16 0.00 0.00
9:35 pm 21:35 Clear 69 20.8 62 16.4 76 76 Calm 30.18 1022 10 16 0.00 0.00
9:55 pm 21:55 Clear 69 20.8 61 16.1 75 75 Calm 30.18 1022 10 16 0.00 0.00
10:15 pm 22:15 Clear 67 19.5 59 15.1 76 76 Calm 30.18 1022 10 16 0.00 0.00
10:35 pm 22:35 Clear 64 18 57 13.9 77 77 Calm 30.18 1022 10 16 0.00 0.00
10:55 pm 22:55 Clear 64 18 57 14.1 78 78 Calm 30.18 1022 10 16 0.00 0.00
11:15 pm 23:15 Clear 62 16.9 56 13.5 81 81 Calm 30.21 1023 10 16 0.00 0.00
11:35 pm 23:35 Clear 62 16.6 56 13.5 82 82 Calm 30.21 1023 10 16 0.00 0.00
11:55 pm 23:55 Clear 62 16.6 56 13.5 82 82 Calm 30.21 1023 10 16 0.00 0.00

Powered by AerisWeather